Regional Weather Roundup
Issued by NWS

Current Version | Previous Version | Text Only | Print | Product List | Glossary On
Versions: 1 2 3 4 5 6 7 8 9 10 11 12 13 14 15 16 17 18 19 20 21 22 23 24 25 26 27 28 29 30 31 32 33 34 35 36 37 38 39 40 41 42 43 44 45 46 47 48 49 50
058
ASUS46 KLOX 060913
RWRCA

SOUTHERN CALIFORNIA WEATHER ROUNDUP
NATIONAL WEATHER SERVICE OXNARD CALIFORNIA
200 AM PDT FRI MAY 06 2016

NOTE: "FAIR" INDICATES FEW OR NO CLOUDS BELOW 12,000 FEET WITH NO
SIGNIFICANT WEATHER AND/OR OBSTRUCTIONS TO VISIBILITY.

  -  STATIONS PRECEEDED BY AN ASTERISK (*) ARE NOT NWS OR FAA
     STATIONS AND ARE NOT SUBJECT TO NWS AND FAA QUALITY CONTROL.

CAZ041-042-087-061000-
LA AND ORANGE COUNTY COASTAL AREAS


CITY           SKY/WX    TMP DP  RH WIND       PRES   REMARKS
L.A. DOWNTOWN  CLOUDY    58  54  86 CALM      29.86F
L.A. AIRPORT   MOCLDY    58  52  80 SE3       29.86F
LONG BEACH     PTCLDY    59  56  89 CALM      29.85F

CITY           SKY/WX    TMP DP  RH WIND       PRES   REMARKS
AVALON           N/A     59 N/A N/A E2          N/A
FULLERTON      PTCLDY    60  55  83 E3        29.85F
HAWTHORNE      CLEAR     58  53  84 CALM      29.86F
*LOS ALAMITOS  FAIR      58  55  89 S2        29.85F
*REDONDO BEACH   N/A     56  52  86 CALM      29.86S
SANTA ANA      CLOUDY    61  54  77 NE5       29.85F
STA MONICA APT CLOUDY    59  53  80 CALM      29.86F
*STA MON PIER    N/A     59  54  82 NE2       29.79F
*UCLA            N/A     55  50  82 N3        29.83F

$$

CAZ547-548-048-061000-
LA COUNTY VALLEYS AND INLAND EMPIRE


CITY           SKY/WX    TMP DP  RH WIND       PRES   REMARKS
BURBANK        CLEAR     57  47  69 CALM      29.85F
VAN NUYS       PTCLDY    56  47  71 CALM      29.86F

CITY           SKY/WX    TMP DP  RH WIND       PRES   REMARKS
CORONA AIRPORT PTSUNNY   56  52  86 CALM      29.86F
*CHATSWORTH      N/A     55  49  80 CALM      29.87F
CHINO          LGT RAIN  56  53  90 W7        29.87F
*CLAREMONT       N/A     50  47  91 S3          N/A
MARCH AFB      PTCLDY    51  51 100 CALM      29.85F
*NORTHRIDGE      N/A     55  48  76 CALM        N/A
ONTARIO        PTCLDY    55  50  83 SW5       29.85F
*PASADENA        N/A     57  52  82 CALM        N/A
RIVERSIDE      PTCLDY    55  52  89 CALM      29.85F
SAN BERNARDINO NOT AVBL
*SAN GABRIEL     N/A     56  54  91 NE1       29.92F
*WHITEMAN AP   NOT AVBL
*WOODLAND HILL   N/A     52  46  82 SE1         N/A

$$

CAZ054-055-061000-
LA AND SAN BERNARDINO COUNTY MOUNTAINS


CITY           SKY/WX    TMP DP  RH WIND       PRES   REMARKS
*ACTON           N/A     47  44  90 CALM        N/A
*BIG BEAR AIRP PTSUNNY   34  32  93 W7        29.86F FOG     WCI  28
*BIG PINES       N/A     33  33  99 S3          N/A
*CHILAO          N/A     38  38 100 S5          N/A  WCI  34
SANDBERG       CLOUDY    44  41  89 CALM      29.86F
*WARM SPRINGS    N/A     44  31  59 CALM        N/A

$$

CAZ028-029-059-060-099-061000-
ANTELOPE VALLEY AND SURROUNDING AREAS


CITY           SKY/WX    TMP DP  RH WIND       PRES   REMARKS
LANCASTER      PTCLDY    50  43  77 W16       29.84F
PALMDALE       CLEAR     50  42  74 SW14      29.84F

CITY           SKY/WX    TMP DP  RH WIND       PRES   REMARKS
29 PALMS       CLEAR     56  36  47 W10       29.83F
BARSTOW/DAGGET CLEAR     55  44  66 W17       29.79S
BISHOP         HVY RAIN  47  43  86 VRB3      29.84R FOG
CHINA LAKE     CLEAR     54  38  54 S14       29.74S
EDWARDS AFB    CLEAR     50  44  79 SW14      29.80F
MOJAVE         CLEAR     52  41  66 W18G25    29.81F
NEEDLES        MOCLDY    72  39  30 S7        29.68F
VICTORVILLE    CLEAR     46  39  76 CALM      29.83F

$$

CAZ039-040-061000-
VENTURA AND SANTA BARBARA COUNTY COAST


CITY           SKY/WX    TMP DP  RH WIND       PRES   REMARKS
CAMARILLO      MOCLDY    58  52  80 CALM      29.86S
NWS OXNARD       N/A     58  53  84 CALM      29.85F
OXNARD AIRPORT MOCLDY    57  54  89 W3        29.86F
*POINT MUGU    CLOUDY    58  55  90 NW3       29.87S
SBA APT/GOLETA CLOUDY    57  53  86 W3        29.85F
*SANTA BARBARA   N/A     58  51  76 CALM      29.93F
*VENTURA         N/A     56  52  86 SW1       29.84F

$$

CAZ044-045-061000-
VENTURA COUNTY VALLEYS


CITY           SKY/WX    TMP DP  RH WIND       PRES   REMARKS
*SIMI VALLEY     N/A     55  50  85 CALM      29.82F
*WESTLAKE VILL   N/A     48  45  89 CALM      29.85F
*OJAI            N/A     51  48  90 CALM      29.81F
*FILLMORE        N/A     58  52  81 CALM      29.75F

$$

CAZ053-061000-
VENTURA COUNTY MOUNTAINS


CITY           SKY/WX    TMP DP  RH WIND       PRES   REMARKS
*LOCKWOOD VLY    N/A     37  36  93 MISG        N/A
*ROSE VALLEY     N/A     46  46 100 MISG        N/A

$$

CAZ034-035-036-061000-
CENTRAL COAST AND SANTA YNEZ VALLEY


CITY           SKY/WX    TMP DP  RH WIND       PRES   REMARKS
SAN LUIS OBISP MOCLDY    56  51  84 CALM      29.85F
SANTA MARIA    PTCLDY    53  53 100 S3        29.85F

CITY           SKY/WX    TMP DP  RH WIND       PRES   REMARKS
*CAL POLY SLO    N/A     54  52  94 NE2         N/A
*LOMPOC        CLOUDY    54  50  86 E3        29.86F
*PISMO BEACH     N/A     55  52  90 NE1       29.85F
*SANTA YNEZ    CLOUDY    54  48  82 CALM      29.86F

$$

CAZ037-038-051-061000-
SAN LUIS OBISPO COUNTY INTERIOR AND CUYAMA VALLEY


CITY           SKY/WX    TMP DP  RH WIND       PRES   REMARKS
*CUYAMA          N/A     49  47  91 N1        29.81F
PASO ROBLES    MOCLDY    50  47  89 S3        29.84F

$$

CAZ032-033-061-061000-
SOUTHERN DESERTS


CITY           SKY/WX    TMP DP  RH WIND       PRES   REMARKS
BLYTHE         CLEAR     66  46  48 S7        29.73R
IMPERIAL       PTCLDY    64  45  49 NW8       29.75R
PALM SPRINGS   PTCLDY    63  44  50 SE7       29.75R
THERMAL        CLEAR     65  44  46 NW12      29.72S

$$

ELSEWHERE ACROSS THE WESTERN UNITED STATES AND MEXICO


CITY           SKY/WX    TMP DP  RH WIND       PRES   REMARKS
DENVER, CO     CLOUDY    52  39  61 S13       29.97F
GRAND CANYON,  CLOUDY    49  22  34 SE6       29.95F
HONOLULU, HI   MOCLDY    75  66  73 N8        30.07S
KAHULUI, MAUI  MOCLDY    75  70  83 N5        30.06S
LAKE TAHOE, CA LGT RAIN  36  34  92 CALM      29.89F
LAS VEGAS, NV  PTCLDY    67  38  34 S10       29.67S
MAMMOTH LAKES, LGT RAIN  35  34  96 SW8       29.89R WCI  29
MEXICO CITY, M PTCLDY    61  46  59 NE9       30.31F
PHOENIX, AZ    PTCLDY    71  40  32 N7        29.77S
PORTLAND, OR   MOCLDY    57  47  69 NW5       30.02R
RENO, NV       LGT RAIN  45  43  93 SE5       29.88S
SALT LAKE CITY CLOUDY    68  38  33 S8        29.79S
SAN DIEGO, CA  CLOUDY    60  56  86 N5        29.87F
SAN FRANCISCO, MOCLDY    54  53  97 W12       29.87F
SAN JOSE, CA   CLOUDY    59  51  75 NW15      29.87S
SEATTLE, WA    CLEAR     58  43  57 NE7       30.07F
TIJUANA, MEX   MOCLDY    57  52  82 CALM      29.89F

$$

STATION/POSITION TIME  TEMP    WIND        PRES    VSBY  WAVE
                       AIR SEA DIR/SP/G                  HT/PER
                 (UTC) (F)     (DEG/KT/KT) (MB)    (MI)  (FT/S)
POINT ARGUELLO B NOT AVBL
WEST SANTA BARBA 0850   58 57  260/  2/  4 1010.6F         5/10
POINT CONCEPTION NOT AVBL
EAST SANTA BARBA 0800   57 58  220/  4/  6 1012.0S
SANTA MONICA BAY 0850   59 60   CALM  /  2 1011.5F         3/14



USA.gov is the U.S. government's official web portal to all federal, state and local government web resources and services.